THORAD DELTA 1 DEB, 42593

Orbit data source: Space-Track

THORAD DELTA 1 DEB, 42593 is space debris in LEO originally from a launch on Fri, 15 Nov 1974 UTC launched from the Air Force Western Test Range (AFWTR). Debris objects in space refer to the collection of defunct objects orbiting the Earth. Examples of debris include non-operational satellites, rocket bodies, and fragments generated from explosions, collisions, or faulty payload assembly.

Loading next visibility...
THORAD DELTA 1 DEB details
Identifier
42593, 1974-089FJ
Orbit
LEO
Last TLE update3 days ago
Origin
Flag of USGSFC (US)
ManufacturerUnknown
MissionSpacecraft
Bus & MotorUnknown
MassUnknown
Launch date (UTC)
1974-11-15 (50 years ago)
Launch vehicleUnknown
Launch site
Air Force Western Test Range (AFWTR)
Object type
Payload
Rocket body
Debris
Shape & HBRUnknown
Radar Cross SectionSmall (<0.1 m²)

Expand to show TLE details & history

TLE from 3 days ago
0 THORAD DELTA 1 DEB
1 42593U 74089FJ  24346.66358826  .00000298  00000-0  41715-2 0  9993
2 42593 101.1861 317.1369 0370537 220.9596 316.9705 11.83578648477876
Epoch: 2024-12-11T15:55Z
Definitive object data (Epoch: 2024-12-11T15:55:34.025Z)
Latitude4.89488°
Longitude178.35573°
Altitude1,542.321 km
Speed7.189 km/s
True Right ascension09h 12m 24s
True Declination4° 52' 07"
Sunlit
Object was in daylight at TLE epoch
Visualization TLE readout
Latitude74.45219°
Longitude-135.49952°
Altitude1,889.069 km
Speed6.899 km/s
Apparent Right ascension14h 06m 51s
Apparent Declination29° 47' 50"
Sunlit
Object is in daylight
Visualization observer readout
Local Sidereal Time02:55:09
Azimuth11.094° NNE
Elevation-19.39°
Doppler factor1
Orbital elements
Apogee altitude2,054.112 km
Perigee altitude1,451.547 km
Semi-major axis8,130.967 km
Eccentricity0.0370537
Inclination101.1861°
RAAN317.1369°
Arg. of periapsis220.9596°
True anomaly313.97309°
Mean anomaly316.9705°
Eccentric anomaly315.48198°
Mean motion2.96026 °/min
BSTAR0.0041715
Orbital period121.61 mins
Loading maneuver chart data...

THORAD DELTA 1 DEB Visibility forecast

Observer location: undefined°, undefined

Span
Click to sort rows by Start time (UTC) header in descending order
Start Az.
Max El. time (UTC)
Max El. Az.
Max El.
End time (UTC)
End Az.
17 mins2024-12-14 10:32:16.872Z25.267° NE2024-12-14 10:41:16.872Z106.195° ESE39.634°2024-12-14 10:49:16.872Z177.106° S
15 mins2024-12-14 12:32:16.872Z0.749° NNE2024-12-14 12:40:16.872Z298.271° NW30.934°2024-12-14 12:47:16.872Z242.458° WSW
16 mins2024-12-14 20:10:16.872Z103.168° ESE2024-12-14 20:18:16.872Z50.438° ENE26.797°2024-12-14 20:26:16.872Z0.85° NNE
20 mins2024-12-14 22:06:16.872Z165.75° S2024-12-14 22:16:16.872Z275.266° WNW44.675°2024-12-14 22:26:16.872Z341.614° N
12 mins2024-12-15 00:11:16.872Z239.542° WSW2024-12-15 00:16:16.872Z269.862° W18.482°2024-12-15 00:23:16.872Z311.133° NW
|